Preview of NWS' New Version of Forecast
This preview is not operational and should not be used for support decisions.

Regional Weather Roundup (RWR)

Issued by Philadelphia/Mt Holly (PHI)

                            
000
ASUS41 KPHI 251012
RWRPHI

REGIONAL WEATHER ROUNDUP
NATIONAL WEATHER SERVICE MOUNT HOLLY NJ
600 AM EDT SAT MAY 25 2019

NOTE:  "FAIR" INDICATES FEW OR NO CLOUDS BELOW 12,000 FEET WITH NO
SIGNIFICANT WEATHER AND/OR OBSTRUCTIONS TO VISIBILITY.

 * = STATION DOES NOT REPORT PRECIPITATION (E.G. RAIN, SNOW, ETC.) 
        OR FOG.

NJZ015>026-251100-
SOUTHERN NEW JERSEY
  
CITY           SKY/WX    TMP DP  RH WIND       PRES   REMARKS
POMONA         FAIR      55  52  89 SE6       30.20R                  
WILDWOOD*      FAIR      57  53  86 E5        30.20R                  
MILLVILLE      FAIR      53  51  93 CALM      30.20R                  
WRIGHTSTOWN    FAIR      53  50  91 CALM      30.18R                  
MOUNT HOLLY    FAIR      53  50  89 CALM      30.19R                  
TRENTON        FAIR      52  49  89 SE3       30.19R                  

$$
NJZ001>014-251100-
NORTHERN NEW JERSEY
  
CITY           SKY/WX    TMP DP  RH WIND       PRES   REMARKS
SUSSEX         MOCLDY    46  46 100 CALM      30.21R FOG              
ANDOVER*         N/A     48  47  96 CALM      30.20R                  
MORRISTOWN     FAIR      50  50 100 CALM      30.21R                  
NEWARK         FAIR      57  49  74 SE5       30.20R                  
TETERBORO      FAIR      56  49  77 S3        30.18R                  
CALDWELL       FAIR      53  51  93 CALM      30.21R                  
SOMERVILLE     FAIR      50  48  93 CALM      30.19R                  
ALLAIRE*       FAIR      53  50  89 SE5       30.21R                  
TOMS RIVER*    FAIR      46  46 100 CALM      30.21R                  

$$
PAZ043-044-047-054-055-060>062-066>071-251100-
EASTERN PENNSYLVANIA
  
CITY           SKY/WX    TMP DP  RH WIND       PRES   REMARKS
PHILADELPHIA   FAIR      58  50  75 SE5       30.20R                  
NORTH PHILA    FAIR      58  50  75 S5        30.20R                  
BLUE BELL*     FAIR      50  50  97 CALM      30.20R                  
DOYLESTOWN     FAIR      54  48  80 CALM      30.19R                  
QUAKERTOWN*    CLEAR     50  50 100 CALM      30.20                   
PERKASIE*      FAIR      48  48 100 CALM      30.21R                  
POTTSTOWN      FAIR      50  49  96 CALM      30.21R                  
LANCASTER      CLOUDY    61  54  77 E3        30.18R                  
COATESVILLE    CLOUDY    57  50  77 VRB3      30.20R                  
WEST CHESTER   FAIR      54  50  87 CALM      30.19R                  
READING        FAIR      55  53  93 CALM      30.18R                  
ALLENTOWN      FAIR      53  47  79 CALM      30.19R                  
QN CITY/ALNTWN FAIR      52  50  93 CALM      30.21R                  
MOUNT POCONO   FAIR      48  47  96 CALM      30.20R                  
HAZLETON       FAIR      48  45  87 E3        30.22R                  
LEHIGHTON      FAIR      45  45 100 CALM      30.22R                  
WILKES BARRE   FAIR      50  47  89 NE7       30.18R                  

$$
DEZALL-MDZ008-012-015-019-020-251100-
DELAWARE AND EASTERN MARYLAND
  
CITY           SKY/WX    TMP DP  RH WIND       PRES   REMARKS
WILMINGTON     CLOUDY    61  50  67 E8        30.19R                  
DOVER          PTCLDY    60  53  79 E9        30.18R                  
CHESWOLD         N/A     61  54  77 SE6       30.19R                  
GEORGETOWN     FAIR      59  55  87 NE3       30.19R                  
EASTON         CLOUDY    64  55  72 E5        30.22R                  
STEVENSVILLE   CLOUDY    64  54  68 SE7       30.18R                  
PATUXENT       MOCLDY    66  58  75 SE10      30.17R                  
OCEAN CITY     FAIR      61  57  87 SE8       30.18R                  
WALLOPS ISLAND MOCLDY    65  60  84 E8        30.17R                  
CAMBRIDGE      CLOUDY    63  54  72 CALM      30.18R                  
SALISBURY      CLOUDY    63  56  78 E5        30.17R                  

$$
PAZ001-021-NYZ056-072-MDZ011-DCZ001-251100-
OTHER NEARBY LOCATIONS
  
CITY           SKY/WX    TMP DP  RH WIND       PRES   REMARKS
HARRISBURG     CLOUDY    63  50  62 SE6       30.17R                  
STATE COLLEGE  CLEAR     55  52  88 CALM      30.16S                  
WILLIAMSPORT   MOCLDY    53  50  89 E3        30.16S                  
BINGHAMTON     FAIR      45  44  97 S3        30.16R                  
NEW YORK CITY  FAIR      55  48  77 CALM      30.22R                  
BALTIMORE      MOCLDY    65  53  65 E6        30.17R                  
WASHINGTON DC  CLOUDY    67  56  67 SE6       30.18R                  

$$